Terug naar catalogus

STARLINK-30428

ActiefCommunicatieVLEO
NORAD 57906·PAYLOAD·🇺🇸 United States

Gelanceerd Sep 20, 2023 vanaf Cape Canaveral Space Force Station

Loading…

Volgende Passages (komende 24 uur)

TLE

VersSource: CelesTrak SupGP

Epoch: Sep 15, 2026, 03:22 UTC

1 57906C 23146R   26258.14076389  .00038763  00000+0  14038-2 0  2586
2 57906  43.0028 324.5759 0001747 265.9671 212.2160 15.27564161    19

Volg STARLINK-30428 in realtime met AllMySat

Download on the App Store